This is the latest recevied weather packets stored in our database for station/object K8WEH. If no packets are shown the sender has not sent any weather packets the latest 10 day(s).
| Time | Temp. | Humidity | Pressure | Rain* | Wind** | Luminosity | Snow |
|---|---|---|---|---|---|---|---|
| 1777530601 | 10° C | 76% | 1015.3 hPa | 0 mm | - | - | - |
| 1777530361 | 10° C | 77% | 1015.4 hPa | 0 mm | - | - | - |
| 1777530060 | 10° C | 76% | 1015.3 hPa | 0 mm | - | - | - |
| 1777529759 | 10.56° C | 76% | 1015.3 hPa | 0 mm | - | - | - |
| 1777529459 | 10.56° C | 76% | 1015.4 hPa | 0 mm | - | - | - |
| 1777529158 | 10.56° C | 77% | 1015.4 hPa | 0 mm | - | - | - |
| 1777528857 | 10.56° C | 76% | 1015.3 hPa | 0 mm | - | - | - |
| 1777528557 | 10.56° C | 76% | 1015.2 hPa | 0 mm | - | - | - |
| 1777528257 | 10.56° C | 76% | 1015.3 hPa | 0 mm | - | - | - |
| 1777527956 | 10.56° C | 76% | 1015.4 hPa | 0 mm | - | - | - |
| 1777527655 | 10.56° C | 76% | 1015.4 hPa | 0 mm | - | - | - |
| 1777527356 | 10.56° C | 76% | 1015.4 hPa | 0 mm | - | - | - |
| 1777527056 | 10.56° C | 76% | 1015.4 hPa | 0 mm | - | - | - |
| 1777526754 | 10.56° C | 76% | 1015.3 hPa | 0 mm | - | - | - |
| 1777526454 | 10.56° C | 76% | 1015.3 hPa | 0 mm | - | - | - |
| 1777526153 | 11.11° C | 73% | 1015.3 hPa | 0 mm | - | - | - |
| 1777525851 | 11.11° C | 72% | 1015.3 hPa | 0 mm | - | - | - |
| 1777525551 | 11.11° C | 74% | 1015.1 hPa | 0 mm | - | - | - |
| 1777525258 | 11.11° C | 75% | 1015 hPa | 0 mm | - | - | - |
| 1777524949 | 11.11° C | 73% | 1015 hPa | 0 mm | - | - | - |
| 1777524649 | 11.11° C | 75% | 1014.9 hPa | 0 mm | - | - | - |
| 1777524348 | 11.11° C | 76% | 1014.7 hPa | 0 mm | - | - | - |
| 1777524048 | 11.11° C | 74% | 1014.7 hPa | 0 mm | - | - | - |
| 1777523749 | 11.67° C | 76% | 1014.6 hPa | 0 mm | - | - | - |
| 1777523448 | 11.67° C | 75% | 1014.7 hPa | 0 mm | - | - | - |
* Rain latest hour (hover to see other rain measurements)
** Current wind speed in m/s (hover to see current wind gust speed)